sat.trackr.live / text

‹ back to catalog

IRIDE-MS1-EAGLET 2-10

NORAD 68451 · 2026-067AM

PAYLOAD ACTIVE UNKNOWN

§ Identity

Operator
Country
IT
Launch date
2026-03-30
Launch site
AFWTR
Launch vehicle
Mass (kg)
RCS (m²)

External: N2YO · Heavens-Above · Gunter

§ Orbital elements

Epoch: 2026-05-25T04:41:46.624128Z

Period
94.83 min
Inclination
97.4490°
Eccentricity
0.0003477
Mean motion
15.18525756 rev/d
Perigee alt
507.9 km
Apogee alt
512.7 km
Semi-major
6,888.4 km
B*
3.3680e-4
RAAN
103.9887°
Arg perigee
93.5725°
Mean anomaly
266.5907°
Rev number
845

§ Raw data

IRIDE-MS1-EAGLET 2-101 68451U 26067AM  26145.19567852  .00006887  00000+0  33680-3 0  99972 68451  97.4490 103.9887 0003477  93.5725 266.5907 15.18525756  8454

JSON: /api/v1/satellites/68451 · /tle

For live sub-satellite position, see the globe view (requires WebGL).

§ Visibility from observer

Set your observer location to see the next 7 days of passes ≥ 10°. The values pass through the URL so the page stays shareable.

No JS? Fill the form by hand. The geolocation button needs JavaScript.